Location: Ammerl�gen
(47.2167°N, 9.6000°E)
Time: 03:25:09
(UTC+00:00)

USA 186 - Pass Details

Date: 21 April 2021
Orbit: 264 x 460 km, 96.9° (Epoch: 09 May)

Event Time Altitude Azimuth Distance (km) Brightness Sun altitude
Rises 19:18:04 0° 184° (S) 2,422 5.3 -9.9°
Reaches altitude 10° 19:20:14 10° 193° (SSW) 1,531 4.4 -10.2°
Maximum altitude 19:23:18 36° 262° (W) 680 3.3 -10.7°
Drops below altitude 10° 19:26:13 10° 331° (NNW) 1,453 5.5 -11.1°
Sets 19:28:14 0° 340° (NNW) 2,278 6.4 -11.4°
